Regional Weather Roundup
Issued by NWS Bismarck, ND

Home | Current Version | Previous Version | Text Only | Print | Product List | Glossary On
Versions: 1 2 3 4 5 6 7 8 9 10 11 12 13 14 15 16 17 18 19 20 21 22 23 24 25 26 27 28 29 30 31 32 33 34 35 36 37 38 39 40 41 42 43 44 45 46 47 48 49 50
000
ASUS43 KBIS 280659
RWRBIS

NWR BROADCAST TEXT
NATIONAL WEATHER SERVICE BISMARCK ND
200 AM CDT THU AUG 28 2014

NOTE: "FAIR" INDICATES FEW OR NO CLOUDS BELOW 12,000 FEET WITH NO
SIGNIFICANT WEATHER AND/OR OBSTRUCTIONS TO VISIBILITY.


CITY           SKY/WX    TMP DP  RH WIND       PRES   REMARKS
WILLISTON      PTCLDY    66  56  70 S5        29.93F
MINOT          CLEAR     64  60  87 S7        29.94F
MINOT AFB      NOT AVBL
BISMARCK       MOCLDY    65  60  84 E5        30.00F
DICKINSON      PTCLDY    60  58  92 S10       29.97F
GARRISON         N/A     62  62 100 S6        29.98F
HETTINGER ARPT FOG       53  53 100 CALM      30.02S VSB<1/4
JAMESTOWN      NOT AVBL
CARRINGTON     PTSUNNY   59  59 100 SE6       30.02F
CROSBY         FAIR      63  59  88 S12       29.91F
HARVEY         FAIR      59  59 100 SE5       29.99F
HAZEN          FAIR      63  61  94 S6        29.98F
LINTON         CLOUDY    64  63  94 SE10      30.00F
RUGBY          FAIR      59  59 100 S7        29.98S
TIOGA          FAIR      59  59 100 S3        29.97F
WATFORD CITY   FAIR      63  57  82 SE6       29.93S
$$

CITY           SKY/WX    TMP DP  RH WIND       PRES   REMARKS
GRAND FORKS    CLEAR     61  58  90 S8        30.02F
GRAND FORKS AF NOT AVBL
DEVILS LAKE    PTCLDY    64  57  77 S10       29.99F
FARGO          CLOUDY    65  60  84 SE8       30.03F
CAVALIER       FAIR      55  55 100 S6        30.01F
GRAFTON        FAIR      54  54 100 S7        30.02F
GWINNER        CLOUDY    66  63  88 SE6       30.05S
LANGDON        FAIR      59  57  94 S10       30.01F
WALHALLA         N/A     61  61 100 S9        30.00F
$$

CITY           SKY/WX    TMP DP  RH WIND       PRES   REMARKS
ABERDEEN       CLOUDY    63  62  97 SE5       30.02F
MOBRIDGE       MOCLDY    66  65  96 SE8       29.97F
RAPID CITY     CLOUDY    63  61  93 CALM      30.02F
GLASGOW        CLEAR     60  52  74 E9        29.90F
SIDNEY         CLEAR     61  57  88 S3        29.95S
WOLF POINT     CLEAR     58  51  78 CALM      29.90F
GLENDIVE       CLEAR     64  61  88 S10       29.96F
MILES CITY     CLEAR     64  57  78 S12       29.95F
BAKER          CLEAR     61  59  93 SE5       30.01F
$$

CITY           SKY/WX    TMP DP  RH WIND       PRES   REMARKS
BILLINGS       CLEAR     70  49  47 SW14      30.03S
GREAT FALLS    CLEAR     60  48  64 SW9       30.00S
$$




USA.gov is the U.S. government's official web portal to all federal, state and local government web resources and services.